TimeCDT,TemperatureF,Dew PointF,Humidity,Sea Level PressureIn,VisibilityMPH,Wind Direction,Wind SpeedMPH,Gust SpeedMPH,PrecipitationIn,Events,Conditions,WindDirDegrees,DateUTC
12:15 AM,75.2,60.8,61,30.01,10.0,South,17.3,-,N/A,,Clear,170,2013-08-24 05:15:00
12:35 AM,75.2,60.8,61,30.01,10.0,South,17.3,23.0,N/A,,Clear,170,2013-08-24 05:35:00
12:55 AM,75.2,60.8,61,30.01,10.0,South,16.1,24.2,N/A,,Clear,170,2013-08-24 05:55:00
1:15 AM,75.2,60.8,61,30.02,10.0,South,16.1,-,N/A,,Clear,170,2013-08-24 06:15:00
1:35 AM,75.2,60.8,61,30.02,10.0,South,16.1,20.7,N/A,,Clear,170,2013-08-24 06:35:00
1:55 AM,73.4,60.8,65,30.02,10.0,South,15.0,18.4,N/A,,Clear,170,2013-08-24 06:55:00
2:15 AM,73.4,60.8,65,30.02,10.0,South,11.5,-,N/A,,Clear,170,2013-08-24 07:15:00
2:35 AM,73.4,60.8,65,30.02,10.0,South,10.4,18.4,N/A,,Clear,180,2013-08-24 07:35:00
2:55 AM,73.4,60.8,65,30.02,10.0,South,11.5,-,N/A,,Clear,190,2013-08-24 07:55:00
3:15 AM,71.6,60.8,69,30.02,10.0,South,12.7,17.3,N/A,,Clear,180,2013-08-24 08:15:00
3:35 AM,71.6,60.8,69,30.01,10.0,South,11.5,-,N/A,,Clear,170,2013-08-24 08:35:00
3:55 AM,69.8,60.8,73,30.01,10.0,South,9.2,-,N/A,,Clear,170,2013-08-24 08:55:00
4:15 AM,69.8,60.8,73,30.02,10.0,South,8.1,-,N/A,,Clear,170,2013-08-24 09:15:00
4:35 AM,68.0,60.8,78,30.02,10.0,South,9.2,-,N/A,,Clear,170,2013-08-24 09:35:00
4:55 AM,68.0,60.8,78,30.02,10.0,South,10.4,-,N/A,,Clear,170,2013-08-24 09:55:00
5:15 AM,68.0,60.8,78,30.02,10.0,South,8.1,-,N/A,,Clear,170,2013-08-24 10:15:00
5:35 AM,68.0,60.8,78,30.03,10.0,South,9.2,-,N/A,,Clear,170,2013-08-24 10:35:00
5:55 AM,66.2,60.8,83,30.03,10.0,SSE,8.1,-,N/A,,Clear,160,2013-08-24 10:55:00
6:15 AM,66.2,60.8,83,30.03,10.0,South,6.9,-,N/A,,Clear,170,2013-08-24 11:15:00
6:35 AM,66.2,60.8,83,30.03,10.0,SSE,8.1,-,N/A,,Clear,160,2013-08-24 11:35:00
6:55 AM,64.4,60.8,88,30.04,10.0,South,8.1,-,N/A,,Clear,170,2013-08-24 11:55:00
7:15 AM,64.4,60.8,88,30.04,10.0,South,6.9,-,N/A,,Clear,170,2013-08-24 12:15:00
7:35 AM,64.4,60.8,88,30.04,10.0,South,8.1,-,N/A,,Clear,170,2013-08-24 12:35:00
7:55 AM,68.0,60.8,78,30.05,10.0,South,8.1,-,N/A,,Clear,190,2013-08-24 12:55:00
8:15 AM,68.0,60.8,78,30.05,10.0,South,8.1,-,N/A,,Clear,190,2013-08-24 13:15:00
8:35 AM,71.6,60.8,69,30.05,10.0,South,9.2,-,N/A,,Clear,190,2013-08-24 13:35:00
8:55 AM,73.4,62.6,69,30.05,10.0,South,11.5,-,N/A,,Clear,180,2013-08-24 13:55:00
9:15 AM,75.2,62.6,65,30.05,10.0,South,12.7,-,N/A,,Clear,170,2013-08-24 14:15:00
9:35 AM,77.0,62.6,61,30.05,10.0,SSE,15.0,-,N/A,,Clear,160,2013-08-24 14:35:00
9:55 AM,78.8,62.6,57,30.05,10.0,SSE,13.8,-,N/A,,Clear,160,2013-08-24 14:55:00
10:15 AM,82.4,60.8,48,30.05,10.0,South,16.1,23.0,N/A,,Clear,180,2013-08-24 15:15:00
10:35 AM,84.2,60.8,45,30.06,10.0,South,17.3,24.2,N/A,,Clear,180,2013-08-24 15:35:00
10:55 AM,86.0,60.8,43,30.05,10.0,South,18.4,26.5,N/A,,Clear,180,2013-08-24 15:55:00
11:15 AM,87.8,60.8,40,30.05,10.0,South,18.4,24.2,N/A,,Clear,180,2013-08-24 16:15:00
11:35 AM,89.6,60.8,38,30.05,10.0,South,23.0,33.4,N/A,,Clear,180,2013-08-24 16:35:00
11:55 AM,89.6,60.8,38,30.05,10.0,South,19.6,26.5,N/A,,Clear,180,2013-08-24 16:55:00
12:15 PM,91.4,60.8,36,30.04,10.0,South,17.3,32.2,N/A,,Clear,180,2013-08-24 17:15:00
12:35 PM,91.4,59.0,34,30.05,10.0,South,25.3,32.2,N/A,,Clear,180,2013-08-24 17:35:00
12:55 PM,93.2,59.0,32,30.04,10.0,South,27.6,35.7,N/A,,Clear,180,2013-08-24 17:55:00
1:15 PM,93.2,59.0,32,30.04,10.0,South,25.3,32.2,N/A,,Clear,170,2013-08-24 18:15:00
1:35 PM,95.0,59.0,30,30.03,10.0,South,25.3,34.5,N/A,,Clear,180,2013-08-24 18:35:00
1:55 PM,95.0,59.0,30,30.02,10.0,South,23.0,33.4,N/A,,Clear,180,2013-08-24 18:55:00
2:15 PM,95.0,59.0,30,30.02,10.0,South,27.6,32.2,N/A,,Clear,170,2013-08-24 19:15:00
2:35 PM,95.0,59.0,30,30.02,10.0,South,23.0,39.1,N/A,,Clear,190,2013-08-24 19:35:00
2:55 PM,95.0,59.0,30,30.02,10.0,South,24.2,42.6,N/A,,Clear,170,2013-08-24 19:55:00
3:15 PM,95.0,57.2,28,30.02,10.0,South,27.6,35.7,N/A,,Scattered Clouds,190,2013-08-24 20:15:00
3:35 PM,96.8,59.0,28,30.01,10.0,South,25.3,33.4,N/A,,Clear,170,2013-08-24 20:35:00
3:55 PM,96.8,57.2,27,30.00,10.0,SSW,20.7,33.4,N/A,,Clear,200,2013-08-24 20:55:00
4:15 PM,96.8,59.0,28,30.00,10.0,South,24.2,36.8,N/A,,Scattered Clouds,170,2013-08-24 21:15:00
4:35 PM,95.0,59.0,30,30.00,10.0,South,28.8,35.7,N/A,,Scattered Clouds,170,2013-08-24 21:35:00
4:55 PM,95.0,59.0,30,29.99,10.0,South,23.0,33.4,N/A,,Scattered Clouds,170,2013-08-24 21:55:00
5:15 PM,95.0,59.0,30,30.00,10.0,South,21.9,36.8,N/A,,Scattered Clouds,170,2013-08-24 22:15:00
5:35 PM,95.0,59.0,30,30.00,10.0,South,25.3,32.2,N/A,,Clear,170,2013-08-24 22:35:00
5:55 PM,95.0,60.8,32,30.00,10.0,South,25.3,32.2,N/A,,Clear,170,2013-08-24 22:55:00
6:15 PM,93.2,60.8,34,30.00,10.0,South,21.9,31.1,N/A,,Clear,170,2013-08-24 23:15:00
6:35 PM,93.2,60.8,34,30.00,10.0,South,20.7,28.8,N/A,,Clear,180,2013-08-24 23:35:00
6:55 PM,91.4,60.8,36,30.00,10.0,South,21.9,-,N/A,,Clear,170,2013-08-24 23:55:00
7:15 PM,91.4,60.8,36,30.00,10.0,SSE,24.2,29.9,N/A,,Clear,160,2013-08-25 00:15:00
7:35 PM,89.6,59.0,36,30.00,10.0,SSE,19.6,33.4,N/A,,Clear,160,2013-08-25 00:35:00
7:55 PM,89.6,59.0,36,30.00,10.0,SSE,19.6,26.5,N/A,,Clear,160,2013-08-25 00:55:00
8:15 PM,87.8,59.0,38,30.01,10.0,SSE,17.3,23.0,N/A,,Clear,160,2013-08-25 01:15:00
8:35 PM,86.0,59.0,40,30.02,10.0,SSE,18.4,23.0,N/A,,Clear,160,2013-08-25 01:35:00
8:55 PM,84.2,59.0,42,30.02,10.0,SSE,16.1,20.7,N/A,,Clear,150,2013-08-25 01:55:00
9:15 PM,82.4,60.8,48,30.04,10.0,SSE,17.3,-,N/A,,Clear,150,2013-08-25 02:15:00
9:35 PM,82.4,60.8,48,30.05,10.0,SSE,16.1,21.9,N/A,,Clear,150,2013-08-25 02:35:00
9:55 PM,82.4,60.8,48,30.06,10.0,SSE,19.6,-,N/A,,Clear,150,2013-08-25 02:55:00
10:15 PM,82.4,62.6,51,30.06,10.0,SSE,20.7,27.6,N/A,,Clear,160,2013-08-25 03:15:00
10:35 PM,80.6,62.6,54,30.06,10.0,SSE,18.4,23.0,N/A,,Clear,160,2013-08-25 03:35:00
10:55 PM,80.6,62.6,54,30.07,10.0,SSE,21.9,26.5,N/A,,Clear,160,2013-08-25 03:55:00
11:15 PM,80.6,62.6,54,30.07,10.0,SSE,17.3,24.2,N/A,,Clear,160,2013-08-25 04:15:00
11:35 PM,78.8,62.6,57,30.08,10.0,SSE,16.1,-,N/A,,Clear,160,2013-08-25 04:35:00
11:55 PM,78.8,62.6,57,30.08,10.0,SSE,15.0,-,N/A,,Clear,160,2013-08-25 04:55:00